This demonstration page uses our WeatherBlox Daily Observations layout. Learn more.

Left ArrowRight Arrow

41.12389, -100.76542

Hourly Observations for April 12, 2016

Temp ( °F °C ) Dew Point ( °F °C ) Humidity (%) Winds ( mph kmh ) Pressure ( in mb ) Visibility ( mi km ) Precip ( " mm )
12:53 am 00:53 Mostly Clear 44 6.7 28 -2.2 53 53 SE 9 15 30.16 1022 10 16 0.00 0.00
1:53 am 01:53 Clear 43 6.1 26 -3.3 51 51 SE 10 17 30.18 1022 10 16 0.00 0.00
2:53 am 02:53 Clear 41 5 26 -3.3 55 55 SE 8 13 30.15 1021 10 16 0.00 0.00
3:53 am 03:53 Clear 37 2.8 26 -3.3 65 65 SE 5 7 30.15 1021 10 16 0.00 0.00
4:53 am 04:53 Clear 36 2.2 26 -3.3 67 67 ESE 3 6 30.14 1021 10 16 0.00 0.00
5:53 am 05:53 Clear 38 3.3 31 -0.6 76 76 S 7 11 30.14 1021 10 16 0.00 0.00
6:53 am 06:53 Clear 36 2.2 32 0 86 86 S 7 11 30.15 1021 10 16 0.00 0.00
7:53 am 07:53 Sunny 40 4.4 35 1.7 83 83 S 10 17 30.16 1021 10 16 0.00 0.00
8:53 am 08:53 Sunny 47 8.3 38 3.3 71 71 VRB 6 9 30.14 1021 10 16 0.00 0.00
9:53 am 09:53 Sunny 53 11.7 37 2.8 55 55 SSW 18 30 30.12 1020 10 16 0.00 0.00
10:53 am 10:53 Sunny 57 13.9 36 2.2 45 45 SSW 25 41 30.09 1019 10 16 0.00 0.00
11:53 am 11:53 Sunny 60 15.6 37 2.8 42 42 S 22 35 30.07 1018 10 16 0.00 0.00
12:53 pm 12:53 Sunny 63 17.2 37 2.8 38 38 S 23 37 30.05 1018 10 16 0.00 0.00
1:53 pm 13:53 Sunny 68 20 39 3.9 35 35 S 20 31 30.01 1016 10 16 0.00 0.00
2:53 pm 14:53 Sunny 70 21.1 39 3.9 32 32 S 17 28 29.98 1015 10 16 0.00 0.00
3:53 pm 15:53 Sunny 71 21.7 40 4.4 32 32 S 21 33 29.97 1015 10 16 0.00 0.00
4:53 pm 16:53 Sunny 72 22.2 40 4.4 31 31 SSW 22 35 29.94 1014 10 16 0.00 0.00
5:53 pm 17:53 Sunny 70 21.1 40 4.4 34 34 SSW 20 31 29.94 1014 10 16 0.00 0.00
6:53 pm 18:53 Sunny 68 20 41 5 38 38 S 14 22 29.95 1014 10 16 0.00 0.00
7:53 pm 19:53 Sunny 64 17.8 40 4.4 41 41 S 16 26 29.95 1014 10 16 0.00 0.00
8:53 pm 20:53 Clear 59 15 40 4.4 49 49 S 12 19 29.95 1014 10 16 0.00 0.00
9:53 pm 21:53 Clear 59 15 40 4.4 49 49 S 15 24 29.95 1014 10 16 0.00 0.00
10:53 pm 22:53 Clear 56 13.3 39 3.9 53 53 S 13 20 29.98 1015 10 16 0.00 0.00
11:53 pm 23:53 Clear 54 12.2 38 3.3 55 55 S 15 24 29.96 1015 10 16 0.00 0.00

Powered by AerisWeather